"Pseudo-MPEC" for P10IgXE

Created 2018 Jul 13 23:18:10 UT using Find_Orb

Click here for an explanation of pseudo-MPECs

 
 Astrometry: 
     P10IgXE  C2018 07 10TeAstrometry]=+y^Dhm!%j5p\+5pUCGPP_H6u))B@FM@*qbwMAAF51
     P10IgXE  C2018 07 10MVkca'3qJZ!!sI7HtQH;Ru5\Gw4Ns/UO!?7(RbRgc-:fx=lsHnhDF51
     P10IgXE  C2018 07 10#7kT%?M4tWimHK0XAMe[9dx`7!.%!R\8Cjq,kOO^w!^-Y%ZD;MbmF51
     P10IgXE |C2018 07 11gynvXJN:L+4h#t3RIredacted;r)J06)jJ(_wj,ejU;H%i=AoU8Y807
     P10IgXE |C2018 07 11OKeSwn#.*aR.ik+3wJWRe1/wS$yb2lBwE?k'OcY],$B@VGQ.2W@u807
     P10IgXE |C2018 07 11.MTa5Js'lp2;)9jFM'-QJMaqXp]6j3x=seeg`,kY4^*npEwcjD6K807
     P10IgXE |C2018 07 12QBOX)F6S^wK%:l?!]xiA(]kN[/rYyCdAsv%sf21m0\L$NkYfCHaL807
     P10IgXE |C2018 07 12,STgbaId]v:p([MlyKFD*fBSNn_[w\Z8+xu\8kRN3l@+Ek,DPrf)807
     P10IgXE |C2018 07 124B[6HXr(qWZF9rlE6@3\:\,$\Ql?Qa3pcEBEy%=mw/8gOKJNEOCP807

Station data:
(807) Cerro Tololo Observatory, La Serena  (S30.169136 W70.805900)  Chile.
   1.5-m Ritchey-Chrétien.
(F51) Pan-STARRS 1, Haleakala  (N20.707235 W156.255910)  US/Hawaii.
   Observers N. Primak, A. Schultz, S. Watters, J. Thiel, T. Goggia. Measurer
   PS1 Science Consortium. 1.8-m Ritchey-Chrétien + CCD.

Orbital elements:  P10IgXE
   Perihelion 2019 Jun 19.304432 +/- 71.6 TT =  7:18:22 (JD 2458653.804432)
Epoch 2018 Jul 12.0 TT = JDT 2458311.5                        AutoNEOCP
M 287.24314 +/- 34                  (J2000 ecliptic)
n   0.21255015 +/- 0.0512           Peri.  241.76684 +/- 28
a   2.78074885 +/- 0.447            Node    81.64808 +/- 1.6
e   0.2208597 +/- 0.0624            Incl.   29.42872 +/- 0.8
P   4.64                   H 17.0   G  0.15   U 10.8  
q 2.16659327 +/- 0.256    Q 3.39490444 +/- 0.636
From 9 observations 2018 July 10-12; mean residual 0".11
Residuals in arcseconds: 
180710 F51  .07+  .02-    180711 807  .06+  .25-    180712 807  .02-  .24+    
180710 F51  .02-  .02-    180711 807  .07-  .12+    180712 807  .04-  .04-    
180710 F51  .05-  .05+    180711 807  .01+  .12+    180712 807  .05+  .20-    

Ephemerides (geocentric):
Date (UTC) HH   RA              Dec         delta   r     elong  mag " sig PA
---- -- -- --  -------------   -----------  ------ ------ -----  --- ---- ---
2018 07 13 23  14 05 17.654   +07 20 39.35  2.4436 2.7267  95.0 22.1  .90  73
2018 07 14 00  14 05 18.419   +07 20 03.07  2.4440 2.7266  94.9 22.1  .95  73
2018 07 14 01  14 05 19.185   +07 19 26.79  2.4444 2.7265  94.9 22.1  1.0  73
2018 07 14 02  14 05 19.954   +07 18 50.51  2.4449 2.7264  94.9 22.1  1.0  72
2018 07 14 03  14 05 20.725   +07 18 14.23  2.4453 2.7263  94.8 22.1  1.1  72
2018 07 14 04  14 05 21.498   +07 17 37.94  2.4457 2.7262  94.8 22.1  1.1  72
2018 07 14 05  14 05 22.273   +07 17 01.65  2.4461 2.7261  94.8 22.1  1.2  72
2018 07 14 06  14 05 23.050   +07 16 25.35  2.4466 2.7260  94.8 22.1  1.2  71
2018 07 14 07  14 05 23.830   +07 15 49.06  2.4470 2.7259  94.7 22.1  1.3  71
2018 07 14 08  14 05 24.612   +07 15 12.76  2.4474 2.7258  94.7 22.1  1.3  71
2018 07 14 09  14 05 25.396   +07 14 36.45  2.4478 2.7257  94.7 22.1  1.4  71
2018 07 14 10  14 05 26.182   +07 14 00.15  2.4482 2.7256  94.6 22.1  1.5  71
2018 07 14 11  14 05 26.970   +07 13 23.84  2.4487 2.7255  94.6 22.1  1.5  70
2018 07 14 12  14 05 27.760   +07 12 47.53  2.4491 2.7254  94.6 22.1  1.6  70
2018 07 14 13  14 05 28.553   +07 12 11.21  2.4495 2.7253  94.5 22.1  1.6  70
2018 07 14 14  14 05 29.347   +07 11 34.90  2.4499 2.7252  94.5 22.1  1.7  70
2018 07 14 15  14 05 30.144   +07 10 58.58  2.4504 2.7251  94.5 22.1  1.7  70
2018 07 14 16  14 05 30.943   +07 10 22.26  2.4508 2.7250  94.4 22.1  1.8  70
2018 07 14 17  14 05 31.745   +07 09 45.93  2.4512 2.7249  94.4 22.1  1.9  69
2018 07 14 18  14 05 32.548   +07 09 09.60  2.4516 2.7248  94.4 22.1  1.9  69
2018 07 14 19  14 05 33.353   +07 08 33.27  2.4521 2.7247  94.4 22.1  2.0  69
2018 07 14 20  14 05 34.161   +07 07 56.94  2.4525 2.7246  94.3 22.1  2.1  69
2018 07 14 21  14 05 34.971   +07 07 20.61  2.4529 2.7246  94.3 22.1  2.1  69
2018 07 14 22  14 05 35.783   +07 06 44.27  2.4533 2.7245  94.3 22.1  2.2  69
2018 07 14 23  14 05 36.597   +07 06 07.93  2.4538 2.7244  94.2 22.1  2.2  69
2018 07 15 00  14 05 37.413   +07 05 31.58  2.4542 2.7243  94.2 22.1  2.3  69
2018 07 15 01  14 05 38.232   +07 04 55.24  2.4546 2.7242  94.2 22.1  2.4  69
2018 07 15 02  14 05 39.052   +07 04 18.89  2.4550 2.7241  94.1 22.1  2.5  68
2018 07 15 03  14 05 39.875   +07 03 42.54  2.4555 2.7240  94.1 22.1  2.5  68
2018 07 15 04  14 05 40.700   +07 03 06.18  2.4559 2.7239  94.1 22.1  2.6  68
2018 07 15 05  14 05 41.527   +07 02 29.82  2.4563 2.7238  94.0 22.1  2.7  68
2018 07 15 06  14 05 42.356   +07 01 53.46  2.4567 2.7237  94.0 22.1  2.7  68
2018 07 15 07  14 05 43.188   +07 01 17.10  2.4572 2.7236  94.0 22.1  2.8  68
2018 07 15 08  14 05 44.021   +07 00 40.74  2.4576 2.7235  94.0 22.1  2.9  68
2018 07 15 09  14 05 44.857   +07 00 04.37  2.4580 2.7234  93.9 22.1  3.0  68
2018 07 15 10  14 05 45.694   +06 59 28.00  2.4584 2.7233  93.9 22.1  3.0  68
2018 07 15 11  14 05 46.534   +06 58 51.63  2.4588 2.7232  93.9 22.1  3.1  68
2018 07 15 12  14 05 47.376   +06 58 15.25  2.4593 2.7231  93.8 22.1  3.2  68
2018 07 15 13  14 05 48.221   +06 57 38.88  2.4597 2.7230  93.8 22.1  3.3  68
2018 07 15 14  14 05 49.067   +06 57 02.50  2.4601 2.7229  93.8 22.1  3.3  68
2018 07 15 15  14 05 49.915   +06 56 26.12  2.4605 2.7228  93.7 22.1  3.4  68
2018 07 15 16  14 05 50.766   +06 55 49.73  2.4610 2.7227  93.7 22.1  3.5  67
2018 07 15 17  14 05 51.619   +06 55 13.34  2.4614 2.7226  93.7 22.1  3.6  67
2018 07 15 18  14 05 52.474   +06 54 36.95  2.4618 2.7225  93.6 22.1  3.7  67
2018 07 15 19  14 05 53.331   +06 54 00.56  2.4622 2.7224  93.6 22.1  3.7  67
2018 07 15 20  14 05 54.190   +06 53 24.17  2.4627 2.7223  93.6 22.2  3.8  67
2018 07 15 21  14 05 55.051   +06 52 47.77  2.4631 2.7222  93.6 22.2  3.9  67
2018 07 15 22  14 05 55.915   +06 52 11.37  2.4635 2.7221  93.5 22.2  4.0  67